Flag for United Kingdom Weather past 2 weeks in Birmingham, England, United Kingdom

Now
79 °F

Scattered clouds.


Feels Like: 79 °F
Forecast: 57 / 78 °F
Wind: 12 mph from Northeast

Location: Birmingham / Airport

Current Time: Jul 25, 2014 at 5:55:53 PM

Latest Report: Jul 25, 2014 at 5:20 PM


Visibility: N/A

Pressure: 30.04 "Hg

Humidity: 45%

Dew point: 55 °F

Location of BirminghamLocation

Historic Weather in Birmingham — Graph

°F

Birmingham temperature yesterday

Maximum temperature yesterday: 82 °F (at 3:50 PM)
Minimum temperature yesterday: 59 °F (at 2:50 AM)
Average temperature yesterday: 69 °F

Past Weeks' High & Low Weather Summary

 TemperatureHumidityPressure
High82 °F (Jul 24, 3:50 PM)100% (Jul 17, 1:20 AM)30.30 "Hg (Jul 17, 1:20 AM)
Low54 °F (Jul 14, 2:50 AM)37% (Jul 24, 3:50 PM)29.74 "Hg (Jul 13, 4:20 AM)
Average67 °F71%30.01 "Hg
* Reported Jul 10 4:20 PM — Jul 25 4:20 PM, Birmingham, Weather by CustomWeather, © 2014

Note: Actual official high and low records may vary slightly from our data, if they occured in-between our weather recording intervals... More about our weather records

Advertising

Birmingham weather history for previous 24 hours

 ConditionsComfort  
Time TempWeatherWind HumidityBarometerVisibility
4:20 PM
Jul 25
79 °FScattered clouds.10 mph48%30.04 "HgN/A
3:50 PM79 °FScattered clouds.8 mph48%30.04 "HgN/A
3:20 PM79 °FScattered clouds.10 mph48%30.04 "HgN/A
2:50 PM79 °FScattered clouds.9 mph48%30.07 "HgN/A
2:20 PM79 °FScattered clouds.9 mph48%30.07 "HgN/A
1:20 PM79 °FPassing clouds.12 mph48%30.07 "HgN/A
12:50 PM77 °FPassing clouds.10 mph51%30.07 "HgN/A
12:20 PM77 °FPassing clouds.10 mph54%30.07 "HgN/A
11:50 AM75 °FPassing clouds.10 mph57%30.09 "HgN/A
11:20 AM73 °FPassing clouds.9 mph61%30.09 "HgN/A
10:50 AM72 °FPassing clouds.9 mph65%30.09 "HgN/A
10:20 AM70 °FClear.8 mph69%30.09 "Hg6 mi
9:50 AM68 °FClear.7 mph73%30.09 "Hg5 mi
9:20 AM64 °FPassing clouds.8 mph83%30.12 "Hg5 mi
8:50 AM64 °FPassing clouds.7 mph83%30.12 "Hg5 mi
8:20 AM63 °FPassing clouds.8 mph83%30.09 "Hg5 mi
7:50 AM63 °FPassing clouds.7 mph83%30.09 "Hg5 mi
7:20 AM61 °FPassing clouds.8 mph88%30.09 "Hg4 mi
6:50 AM61 °FClear.8 mph88%30.09 "Hg4 mi
6:20 AM59 °FClear.6 mph88%30.09 "Hg4 mi
5:50 AM59 °FClear.6 mph88%30.09 "Hg4 mi
5:20 AM59 °FClear.6 mph88%30.09 "Hg4 mi
4:50 AM59 °FClear.6 mph88%30.09 "Hg6 mi
4:20 AM59 °FCool.6 mph88%30.09 "HgN/A
3:50 AM59 °FCool.7 mph88%30.09 "HgN/A
3:20 AM59 °FClear.6 mph88%30.09 "Hg10 mi
2:50 AM61 °FCool.5 mph83%30.09 "HgN/A
2:20 AM63 °FMild.5 mph77%30.09 "HgN/A
1:50 AM63 °FMild.6 mph77%30.09 "HgN/A
1:20 AM64 °FClear.5 mph73%30.12 "Hg10 mi
12:50 AM64 °FPassing clouds.6 mph73%30.12 "HgN/A
12:20 AM64 °FClear.6 mph73%30.09 "Hg10 mi
11:50 PM
Jul 24
66 °FClear.6 mph68%30.09 "Hg10 mi
11:20 PM68 °FClear.8 mph64%30.09 "Hg10 mi
10:50 PM70 °FClear.8 mph57%30.09 "Hg10 mi
10:20 PM70 °FClear.8 mph57%30.09 "Hg10 mi
9:50 PM72 °FPassing clouds.8 mph53%30.09 "HgN/A
9:20 PM73 °FPassing clouds.8 mph47%30.09 "HgN/A
8:50 PM73 °FSunny.10 mph44%30.07 "Hg10 mi
8:20 PM75 °FSunny.12 mph47%30.07 "Hg10 mi
7:50 PM77 °FSunny.10 mph51%30.07 "Hg10 mi
7:20 PM79 °FPassing clouds.12 mph45%30.04 "HgN/A
6:50 PM79 °FSunny.13 mph39%30.04 "Hg10 mi
6:20 PM79 °FPassing clouds.13 mph42%30.04 "HgN/A
5:50 PM81 °FSunny.13 mph39%30.04 "Hg10 mi
5:20 PM81 °FSunny.14 mph39%30.04 "Hg10 mi
Weather by CustomWeather, © 2014

See weather overviewHow to use our weather pages